FW7487 Weather Reports


Display with metric or nautical units.
time (UTC)temp
F
wind
direction
speed
MPH
gust
MPH
rain 1hr
in
rain 24hr
in
rain mn
in
humidity
%
barometer
mb
20260906123058 73 0 0.0 0.0 0.00 0.00 0.00 90 1014.2
20260906121607 72 0 0.0 0.0 0.00 0.00 0.00 91 1014.1
20260906114555 72 0 0.0 0.0 0.00 0.00 0.00 91 1014.1
20260906113105 72 0 0.0 0.0 0.00 0.00 0.00 91 1014.0
20260906111551 72 0 0.0 0.0 0.00 0.00 0.00 91 1013.8
20260906110104 71 0 0.0 2.0 0.00 0.00 0.00 91 1013.6
20260906104557 72 360 1.0 2.0 0.00 0.00 0.00 91 1013.5
20260906103103 72 0 0.0 0.0 0.00 0.00 0.00 90 1013.1
20260906101601 72 360 1.0 2.0 0.00 0.00 0.00 91 1013.3
20260906100105 72 360 0.0 2.0 0.00 0.00 0.00 91 1013.3
20260906094554 72 0 0.0 0.0 0.00 0.00 0.00 90 1013.2
20260906093105 72 0 0.0 0.0 0.00 0.00 0.00 90 1013.1
20260906091601 71 0 0.0 0.0 0.00 0.00 0.00 91 1013.1
20260906090114 71 0 0.0 0.0 0.00 0.00 0.00 91 1013.1
20260906084612 71 0 0.0 0.0 0.00 0.00 0.00 91 1013.1
20260906083109 71 0 0.0 0.0 0.00 0.00 0.00 90 1013.1
20260906081600 72 0 0.0 0.0 0.00 0.00 0.00 90 1012.9
20260906080122 72 0 0.0 0.0 0.00 0.00 0.00 89 1012.9
20260906074607 72 0 0.0 0.0 0.00 0.00 0.00 89 1012.6
20260906073105 72 0 0.0 0.0 0.00 0.00 0.00 88 1012.7
20260906071600 72 0 0.0 0.0 0.00 0.00 0.00 89 1013.0
20260906070103 73 0 0.0 1.0 0.00 0.00 0.00 87 1013.1
20260906064551 73 0 0.0 1.0 0.00 0.00 0.00 87 1013.0
20260906063102 73 0 0.0 1.0 0.00 0.00 0.00 86 1013.0
20260906061605 74 0 0.0 2.0 0.00 0.00 0.00 86 1013.1
20260906054552 75 360 0.0 2.0 0.00 0.00 0.00 83 1013.5
20260906053101 75 0 1.0 2.0 0.00 0.00 0.00 82 1013.6
20260906051606 75 0 0.0 3.0 0.00 0.00 0.00 81 1013.7
20260906050109 75 360 1.0 3.0 0.00 0.00 0.00 80 1014.0
20260906044602 76 0 0.0 2.0 0.00 0.00 0.00 78 1014.1
20260906043104 76 0 0.0 4.0 0.00 0.00 0.00 77 1013.9
20260906041603 76 182 0.0 3.0 0.00 0.00 0.00 76 1013.6
20260906040058 77 0 0.0 2.0 0.00 0.00 0.00 75 1013.7
20260906034608 78 50 0.0 3.0 0.00 0.00 0.00 73 1013.4
20260906033102 77 162 2.0 6.0 0.00 0.00 0.00 75 1013.3
20260906031600 77 323 2.0 4.0 0.00 0.00 0.00 75 1013.3
20260906030104 78 334 0.0 3.0 0.00 0.00 0.00 73 1013.5
20260906024604 79 323 2.0 5.0 0.00 0.00 0.00 71 1013.7
20260906023059 79 280 1.0 5.0 0.00 0.00 0.00 71 1013.3
20260906021603 79 244 0.0 4.0 0.00 0.00 0.00 72 1013.1
20260906020106 82 32 4.0 14.0 0.00 0.00 0.00 65 1013.3
20260906014601 81 352 5.0 13.0 0.00 0.00 0.00 63 1013.6
20260906013107 80 92 3.0 14.0 0.00 0.00 0.00 68 1014.0
20260906011603 81 82 6.0 14.0 0.00 0.00 0.00 69 1014.5
20260906010100 82 318 2.0 5.0 0.00 0.00 0.00 81 1014.2
20260906004559 81 324 4.0 7.0 0.00 0.00 0.00 81 1013.6
20260906003101 81 0 0.0 1.0 0.00 0.00 0.00 81 1013.2
20260906001559 81 0 0.0 0.0 0.00 0.00 0.00 82 1013.1
20260906000108 81 329 0.0 3.0 0.00 0.00 0.00 82 1012.8
20260905234618 81 0 0.0 4.0 0.00 0.00 0.00 84 1012.2
20260905233100 82 0 0.0 2.0 0.00 0.00 0.00 83 1012.3
20260905231607 82 0 0.0 2.0 0.00 0.00 0.00 82 1012.8
20260905230105 82 0 0.0 3.0 0.00 0.00 0.00 80 1012.7
20260905224552 82 180 0.0 3.0 0.00 0.00 0.00 80 1012.6
20260905223106 82 153 1.0 3.0 0.00 0.00 0.00 78 1012.7
20260905221600 83 0 0.0 2.0 0.00 0.00 0.00 78 1012.6
20260905220113 82 259 0.0 2.0 0.00 0.00 0.00 77 1012.7
20260905214555 82 174 1.0 4.0 0.00 0.00 0.00 77 1012.7
20260905213100 82 213 4.0 7.0 0.00 0.00 0.00 76 1012.6
20260905211558 82 179 1.0 10.0 0.00 0.00 0.00 75 1012.9
20260905210105 83 246 3.0 9.0 0.00 0.00 0.00 74 1012.9
20260905204600 81 219 1.0 5.0 0.00 0.00 0.00 77 1012.8
20260905203108 82 329 2.0 6.0 0.00 0.00 0.00 79 1012.8
20260905201602 82 333 0.0 4.0 0.00 0.00 0.00 79 1012.8
20260905200107 82 227 1.0 10.0 0.00 0.00 0.00 79 1013.1
20260905194559 81 186 3.0 9.0 0.00 0.00 0.00 80 1013.4
20260905193059 80 160 1.0 11.0 0.00 0.00 0.00 82 1014.1
20260905191601 81 189 3.0 8.0 0.00 0.00 0.00 81 1014.6
20260905190057 82 199 3.0 9.0 0.00 0.00 0.00 79 1014.9
20260905184601 83 198 3.0 9.0 0.00 0.00 0.00 78 1014.4
20260905183103 83 155 2.0 6.0 0.00 0.00 0.00 77 1014.0
20260905181600 83 169 1.0 5.0 0.00 0.00 0.00 79 1014.3
20260905180059 83 200 2.0 9.0 0.00 0.00 0.00 79 1014.5
20260905174553 82 146 2.0 8.0 0.00 0.00 0.00 85 1014.6
20260905173100 84 237 2.0 6.0 0.00 0.00 0.00 80 1014.8
20260905171634 87 167 1.0 4.0 0.00 0.00 0.00 73 1014.9
20260905170105 89 0 0.0 2.0 0.00 0.00 0.00 68 1015.1
20260905164602 90 0 0.0 1.0 0.00 0.00 0.00 68 1015.3
20260905163102 89 286 0.0 2.0 0.00 0.00 0.00 66 1015.4
20260905161559 90 188 0.0 5.0 0.00 0.00 0.00 63 1015.4
20260905160107 92 40 1.0 6.0 0.00 0.00 0.00 59 1015.5
20260905154615 91 0 1.0 4.0 0.00 0.00 0.00 63 1015.5
20260905153104 90 323 2.0 7.0 0.00 0.00 0.00 66 1015.7
20260905151552 89 324 2.0 7.0 0.00 0.00 0.00 67 1015.8
20260905150108 89 312 2.0 6.0 0.00 0.00 0.00 67 1015.7
20260905144606 87 323 2.0 6.0 0.00 0.00 0.00 71 1015.8
20260905143106 88 291 0.0 8.0 0.00 0.00 0.00 72 1015.9
20260905141558 86 333 3.0 8.0 0.00 0.00 0.00 75 1016.1
20260905140103 85 323 1.0 5.0 0.00 0.00 0.00 78 1016.0
20260905134603 83 314 3.0 8.0 0.00 0.00 0.00 80 1016.1
20260905133103 82 322 3.0 7.0 0.00 0.00 0.00 82 1016.1
20260905131602 81 320 3.0 8.0 0.00 0.00 0.00 84 1016.1
20260905130059 80 319 2.0 6.0 0.00 0.00 0.00 87 1016.2
20260905124558 78 336 2.0 7.0 0.00 0.00 0.00 89 1016.0